Location: Plainartige
(45.6866°N, 1.7993°E)
Time: 18:16:33
(UTC+00:00)

POLYITAN 1 - Pass Details

Date: 04 July 2022
Orbit: 586 x 605 km, 98.0° (Epoch: 18 August)

Event Time Altitude Azimuth Distance (km) Brightness Sun altitude
Rises 01:46:06 0° 13° (NNE) 2,864 ? -17.1°
Reaches altitude 10° 01:48:16 10° 13° (NNE) 1,958 ? -16.9°
Maximum altitude 01:52:32 90° 109° (ESE) 612 ? -16.6°
Enters shadow 01:54:34 31° 194° (SSW) 1,078 ? -16.4°
